Temperature
21 20 19 19 19 19 18 18 18 18 18 17 17 17 17 17 17 17 17 17 17 17 17 17 17 17 17 17 17 17 17 17 17 17 17 17 17 17 17 17 17 17 16
21 19 19 19 19 18 18 18 18 18 18 18 18 18 18 17 17 17 17 17 17 17 17 17 17 17 17 17 17 17 17 17 17 17 18 18 18 17 18 17 17 17 17
21 20 19 19 18 18 18 18 18 18 18 18 17 17 17 17 17 17 17 17 17 17 17 17 17 17 17 17 17 17 17 17 17 17 18 18 19 19 18 17 17 17 17
22 20 19 19 18 18 18 18 18 18 18 18 17 17 17 17 17 17 17 17 17 17 17 17 17 17 17 17 17 17 17 17 17 17 17 17 18 18 18 18 18 17 17
22 20 19 19 19 18 18 18 18 18 18 17 17 17 17 17 17 17 17 17 17 17 17 17 17 17 17 17 17 17 17 17 17 17 17 17 17 17 18 18 18 18 18
21 20 19 19 19 18 18 18 18 18 17 18 17 17 17 17 17 17 17 17 17 17 17 17 17 17 17 17 17 17 17 17 17 17 17 17 17 18 18 18 18 18 18
22 20 20 19 19 18 18 18 18 18 17 17 17 17 17 17 17 17 17 17 17 17 17 17 17 17 17 17 17 17 17 17 17 17 17 17 17 17 18 18 18 18 18
22 21 20 19 19 18 18 18 18 18 18 18 18 17 17 17 17 17 17 17 17 17 17 17 17 17 17 17 17 17 17 17 17 17 17 17 17 17 17 17 18 18 18
22 21 20 19 19 19 18 18 18 18 18 18 18 18 17 17 17 17 17 17 17 17 17 17 17 17 17 17 17 16 17 16 16 17 17 17 17 17 17 17 17 17 17
22 21 21 20 19 19 18 18 18 18 18 18 17 17 17 17 17 17 17 17 17 17 17 17 17 17 17 16 17 16 16 16 16 16 16 16 16 16 16 16 17 17 16
23 22 21 20 20 19 19 18 18 18 18 18 18 17 17 17 17 17 17 17 17 17 17 17 17 17 17 16 16 16 16 16 16 16 16 16 16 16 16 16 16 16 16
23 22 21 20 20 19 19 18 18 18 18 18 18 18 17 17 17 17 17 17 17 17 17 17 16 16 16 16 16 16 16 16 16 16 16 15 15 15 15 15 15 15 15
22 22 21 20 20 19 19 19 18 18 18 18 18 17 17 17 17 17 17 17 17 17 16 16 16 16 16 16 16 16 16 16 15 15 15 15 15 15 15 15 15 15 15
22 21 21 20 19 19 19 18 18 18 18 17 17 17 17 17 17 17 17 17 17 16 16 16 16 16 16 16 16 15 15 15 15 15 15 15 15 14 14 14 14 14 14
22 21 20 20 19 19 18 18 18 18 18 17 17 17 17 17 17 16 16 16 16 16 16 16 16 15 15 15 15 15 15 15 15 15 15 14 14 14 14 14 14 14 13
22 21 20 20 19 19 18 18 18 18 18 17 17 17 17 16 16 16 16 16 16 16 15 15 15 15 15 15 15 15 15 14 14 14 14 14 14 14 14 14 13 13 13
22 21 20 19 19 19 19 18 18 18 18 17 17 17 16 16 16 16 16 16 16 15 15 15 15 15 15 15 15 14 14 14 14 14 13 13 13 13 13 13 13 12 12
22 21 20 19 19 19 19 18 18 18 17 17 17 16 16 16 16 16 15 15 15 15 15 15 14 14 14 14 14 14 14 13 13 13 13 12 12 12 12 12 12 12 11
21 20 20 19 19 19 18 18 18 17 17 17 16 16 16 16 15 15 15 15 15 15 14 14 14 14 14 13 13 13 13 13 13 12 12 12 12 11 11 11 11 11 10
20 20 19 19 18 18 18 18 17 17 16 16 16 16 16 15 15 15 15 14 14 14 14 14 14 13 13 13 13 13 12 12 12 11 11 11 11 11 10 10 10 10 9
19 19 18 18 18 18 18 17 17 16 16 16 16 16 15 15 15 14 14 14 14 14 13 13 13 13 13 12 12 12 11 11 11 11 10 10 10 10 10 9 9 9 9
18 18 18 18 17 17 17 17 16 16 16 15 15 15 15 14 14 14 14 14 13 13 13 12 12 12 12 12 11 11 11 11 10 10 10 9 9 9 9 9 9 8 8
17 17 17 17 17 17 16 16 16 16 15 15 15 15 14 14 14 13 13 13 13 12 12 12 11 11 11 11 11 10 10 10 10 9 9 9 8 8 8 8 8 8 8
16 16 16 16 16 16 16 16 15 15 15 15 14 14 13 13 13 13 12 12 12 12 11 11 11 11 10 10 10 9 9 9 9 8 8 8 8 8 7 7 7 7 7
15 15 15 15 15 15 15 15 15 14 14 14 13 13 13 12 12 12 11 11 11 11 11 11 11 10 10 10 9 9 9 9 8 8 8 7 7 7 7 7 7 7 7
15 15 15 15 15 14 14 14 14 14 14 13 13 12 12 12 12 11 11 11 10 10 10 10 10 10 9 9 9 8 8 8 8 8 8 7 7 7 7 7 6 6 6
Wind_Speed
8 9 9 10 10 10 11 12 12 11 9 8 9 8 8 7 6 6 8 8 8 8 7 5 6 6 5 5 6 5 6 5 4 3 3 4 5 5 5 5 5 6 6
9 9 10 10 11 11 11 11 12 11 11 9 8 7 6 6 6 6 7 9 9 9 8 7 6 6 5 6 6 5 5 4 5 4 4 4 5 5 6 6 6 6 6
10 10 10 10 10 11 12 11 12 11 11 10 8 6 6 5 6 7 7 9 10 9 9 8 7 6 7 6 7 7 7 5 5 5 4 3 3 2 5 6 6 6 5
9 9 10 10 10 10 10 10 12 11 11 10 10 10 9 9 8 7 7 8 10 10 9 9 8 7 7 6 8 7 6 6 5 5 5 5 4 3 2 4 5 5 5
9 9 9 9 9 9 9 9 10 10 11 11 11 11 10 8 7 7 7 7 7 9 9 9 8 8 7 7 7 6 7 6 6 5 5 6 5 6 4 4 3 3 4
9 9 9 8 8 8 8 8 9 10 10 11 11 12 11 9 8 8 8 7 6 7 9 9 8 8 7 7 7 7 8 7 6 6 6 5 5 5 5 5 5 4 3
10 10 9 9 9 9 9 8 9 9 10 11 12 11 11 10 10 9 9 8 7 7 8 8 8 8 8 8 8 7 7 8 7 7 6 6 6 6 6 6 5 4 4
9 9 9 9 9 9 9 8 9 8 9 10 10 9 9 8 8 9 7 7 6 6 7 8 8 8 8 8 7 7 8 7 7 7 6 6 6 6 6 6 5 6 5
9 9 9 9 9 9 9 9 9 8 8 8 9 9 9 8 7 7 7 6 6 6 7 8 8 8 8 8 7 6 6 6 6 6 7 6 6 6 6 6 6 6 6
9 9 9 9 8 8 8 8 8 8 8 8 8 7 7 7 6 6 6 5 5 5 6 7 7 7 7 7 7 6 6 6 5 5 6 6 6 5 5 5 5 6 6
10 9 9 8 9 8 8 8 7 7 6 6 6 6 6 5 5 5 5 5 5 5 5 6 6 6 6 6 6 6 6 6 6 6 5 6 6 5 5 5 5 5 4
9 9 9 9 8 8 8 8 7 6 6 6 6 5 5 5 5 5 4 4 4 4 4 4 4 5 5 5 6 6 6 6 5 5 4 4 4 4 4 4 4 4 4
9 9 10 9 9 8 8 7 7 7 6 6 6 5 5 5 4 4 3 3 3 3 3 4 4 4 4 4 4 4 4 4 3 3 3 3 3 3 3 3 4 3 3
9 9 9 9 8 8 7 7 6 6 6 6 6 5 4 4 4 4 3 3 2 2 2 2 2 2 2 2 2 3 2 2 1 1 1 1 2 2 3 3 3 2 2
9 10 9 9 9 8 8 7 7 7 6 6 6 5 5 4 4 4 4 3 3 3 2 2 2 2 2 1 1 2 2 2 2 1 1 2 3 4 2 0 1 1 2
9 10 9 9 9 9 9 8 8 7 7 6 6 5 5 5 5 5 5 4 3 3 3 3 3 3 2 5 4 1 2 2 2 2 3 4 5 7 9 10 9 6 2
9 9 9 9 9 9 9 9 9 8 8 7 6 6 6 6 6 5 5 5 5 5 4 4 4 4 6 7 6 5 3 4 3 3 3 3 5 5 6 9 9 10 10
8 8 8 8 8 8 9 9 9 9 8 7 7 6 6 6 6 6 6 6 5 5 5 5 5 6 6 7 7 6 6 6 5 5 5 5 5 5 5 7 8 8 9
6 7 7 8 8 8 9 9 9 9 8 8 7 7 7 7 7 6 6 6 6 6 6 6 6 6 6 6 5 4 6 6 7 6 6 6 6 7 5 8 8 8 8
5 6 7 8 8 8 9 9 9 9 8 8 7 7 7 7 7 7 6 6 6 7 7 7 6 6 6 6 5 3 5 6 6 6 7 9 8 6 5 6 7 7 6
6 7 7 7 7 8 9 9 9 8 8 8 8 8 7 7 7 7 6 6 7 7 7 7 7 6 6 7 6 4 4 6 6 6 6 6 9 8 7 6 6 5 4
6 6 6 6 6 7 8 8 8 8 8 8 8 8 7 7 7 8 7 7 7 8 7 7 6 5 5 6 7 7 6 5 7 6 6 7 9 9 8 7 6 3 2
5 5 6 7 6 6 7 8 8 8 9 9 8 8 7 6 7 7 7 6 6 6 6 6 5 5 5 7 9 9 8 7 7 8 10 10 9 9 9 8 3 2 3
5 5 7 7 6 6 6 7 8 8 9 9 9 8 8 7 6 5 5 5 5 5 5 6 6 5 5 5 6 7 8 9 9 9 10 9 7 7 7 5 3 4 5
5 5 6 6 6 6 6 6 7 9 9 9 8 8 8 8 7 6 5 4 4 3 4 5 6 6 6 4 4 5 6 6 7 7 6 6 5 5 5 5 4 4 4
5 6 6 7 6 6 6 6 7 8 9 9 8 7 7 7 7 8 8 13 10 11 10 8 6 7 8 9 9 9 9 8 5 5 6 5 5 5 4 4 4 4 3
Wind_Direction
173 173 177 179 179 183 188 192 193 188 184 184 188 188 190 194 198 202 200 203 207 203 212 213 192 212 208 212 206 206 202 214 208 220 212 211 214 209 210 218 221 211 211
170 169 173 174 181 186 194 198 195 191 192 191 190 192 189 198 199 206 203 210 213 211 209 215 212 206 209 214 214 214 229 217 209 231 235 223 203 209 213 207 216 227 217
174 170 171 175 179 185 192 196 194 195 197 192 188 188 186 202 202 207 207 209 210 212 215 210 218 212 216 210 212 214 225 233 221 228 245 257 246 205 192 210 214 219 223
172 170 172 178 185 188 187 188 190 194 199 195 196 197 200 204 207 210 206 204 209 213 211 209 212 218 223 214 218 214 224 230 231 220 235 262 298 271 217 201 201 206 220
171 170 174 178 180 182 182 184 186 192 197 200 200 204 211 213 208 209 205 210 211 215 213 210 212 216 224 224 229 218 227 227 234 234 228 233 238 249 259 248 228 208 213
164 164 164 165 171 175 177 179 184 193 198 200 203 208 213 215 214 210 209 210 209 211 211 212 213 218 223 221 222 225 225 234 239 246 243 238 240 241 243 246 243 235 221
161 162 164 164 167 172 176 180 186 194 198 199 203 208 213 213 215 215 213 215 212 210 208 214 212 218 225 228 226 225 237 231 233 236 240 243 246 254 255 255 252 250 234
158 161 163 162 166 170 174 180 186 192 196 197 200 206 211 213 216 214 215 212 216 217 209 214 216 221 226 229 226 231 229 229 232 235 237 245 248 248 249 254 257 255 247
153 157 157 159 164 169 172 176 179 183 191 196 195 200 207 215 218 212 213 217 213 215 211 214 216 219 222 226 226 231 229 225 229 230 227 238 247 247 251 254 260 262 261
153 156 158 159 162 165 166 169 172 178 186 190 195 194 199 204 209 211 211 213 210 214 215 216 216 218 218 218 223 225 222 221 229 242 247 244 246 248 249 253 255 258 264
156 157 159 161 163 161 159 160 164 171 177 182 183 181 187 188 191 197 203 204 208 204 212 217 218 216 215 213 217 224 219 221 226 235 237 242 252 248 250 250 250 252 253
157 157 157 160 164 161 159 160 164 168 172 169 168 172 177 179 183 187 193 196 208 210 208 213 215 215 213 215 218 220 220 221 224 227 230 240 239 241 255 258 254 252 249
160 161 160 162 164 164 164 163 166 165 167 164 163 166 172 173 176 179 180 186 200 204 203 199 201 202 206 212 217 215 212 215 220 225 226 234 238 247 250 254 252 248 242
165 168 165 164 164 164 164 162 158 157 159 158 157 160 169 171 172 171 166 167 171 176 182 181 187 185 182 186 197 196 189 186 180 197 230 242 242 244 241 237 239 233 221
171 172 171 168 168 166 166 162 159 158 155 151 153 155 158 158 157 155 151 148 148 147 135 133 131 125 137 143 154 159 151 146 130 104 83 64 65 51 42 65 147 189 205
176 174 173 173 174 172 171 165 163 161 156 155 156 154 151 147 143 141 139 133 128 124 116 118 122 120 110 73 71 114 137 130 121 114 107 100 88 84 76 67 58 48 62
176 175 176 177 177 175 171 168 164 162 160 155 155 152 144 138 133 133 130 125 118 113 110 111 111 104 78 76 76 73 104 103 94 90 89 88 85 94 100 91 82 62 50
173 172 170 168 168 167 165 162 159 161 159 152 149 147 142 134 131 131 128 123 118 113 108 103 100 98 84 78 82 86 98 92 85 80 82 88 86 82 95 97 86 75 62
164 163 163 158 154 155 157 158 159 159 158 154 150 147 145 140 137 135 128 122 120 116 112 107 101 100 91 74 78 92 106 98 88 78 72 82 88 67 81 103 99 92 87
143 145 143 141 143 148 152 155 158 157 156 151 145 142 143 141 138 135 130 125 121 117 113 101 97 96 94 78 74 88 116 110 105 95 83 71 80 68 63 100 104 101 95
127 131 133 134 137 145 148 149 149 148 145 141 137 133 137 137 134 130 126 125 121 114 109 104 97 93 90 89 72 57 111 119 115 108 98 85 80 76 62 75 92 97 107
121 127 127 124 129 140 143 142 140 137 137 136 132 130 135 136 133 129 126 127 127 123 117 112 104 95 92 87 86 75 70 84 110 108 104 101 95 86 76 83 86 98 122
112 120 123 118 119 133 142 142 139 139 136 134 132 130 130 129 131 133 136 137 137 135 132 129 123 112 104 95 90 90 83 79 95 98 97 106 113 114 94 88 97 137 101
115 121 121 119 117 121 129 135 136 137 136 136 135 134 131 126 121 125 132 136 140 141 138 134 129 124 121 118 120 119 116 116 111 110 113 113 99 97 99 112 100 80 71
112 119 122 123 122 121 121 129 138 141 138 135 133 133 130 124 113 95 69 92 84 100 134 139 141 142 138 118 96 128 127 123 119 127 126 119 114 104 100 97 90 89 95
111 111 114 117 118 120 121 127 140 143 142 140 139 138 136 132 130 119 94 58 62 69 68 62 86 101 103 112 107 98 93 98 119 127 117 113 111 109 111 112 108 96 86
Height
1527 1529 1530 1532 1534 1536 1537 1539 1542 1545 1548 1550 1553 1556 1559 1562 1565 1567 1568 1570 1572 1574 1576 1578 1579 1580 1582 1583 1584 1585 1586 1587 1588 1589 1590 1590 1590 1591 1591 1592 1593 1593 1593
1526 1527 1528 1530 1531 1533 1535 1537 1538 1542 1545 1548 1551 1555 1558 1560 1563 1565 1566 1569 1571 1572 1575 1576 1578 1579 1580 1581 1582 1584 1585 1587 1587 1588 1589 1589 1590 1589 1590 1590 1590 1591 1592
1523 1525 1526 1528 1529 1530 1532 1534 1535 1539 1543 1546 1550 1553 1556 1558 1561 1563 1564 1567 1568 1570 1572 1574 1576 1577 1579 1580 1580 1582 1583 1585 1586 1587 1588 1587 1587 1588 1588 1588 1589 1589 1590
1522 1524 1525 1526 1527 1529 1530 1532 1534 1537 1541 1544 1547 1550 1553 1556 1558 1561 1563 1565 1566 1568 1570 1572 1574 1575 1577 1578 1579 1580 1581 1582 1584 1584 1585 1586 1586 1587 1586 1587 1587 1587 1587
1520 1522 1524 1525 1527 1528 1530 1531 1534 1536 1539 1542 1545 1548 1551 1554 1557 1559 1560 1562 1564 1566 1568 1570 1571 1573 1574 1576 1577 1578 1579 1580 1581 1582 1583 1584 1584 1585 1585 1585 1586 1586 1586
1519 1521 1523 1525 1526 1528 1529 1531 1532 1535 1537 1540 1543 1546 1549 1552 1554 1556 1558 1560 1562 1564 1565 1567 1569 1570 1572 1573 1574 1575 1576 1578 1579 1579 1581 1581 1582 1582 1583 1583 1583 1583 1583
1518 1520 1522 1524 1525 1526 1528 1530 1532 1534 1536 1538 1541 1544 1546 1549 1551 1554 1556 1557 1559 1561 1563 1565 1566 1567 1569 1570 1571 1572 1574 1575 1575 1576 1578 1579 1579 1580 1580 1581 1580 1581 1581
1517 1519 1522 1523 1525 1526 1528 1529 1531 1533 1535 1537 1539 1541 1544 1547 1549 1551 1553 1555 1557 1559 1560 1561 1563 1564 1566 1567 1568 1570 1571 1571 1572 1574 1575 1575 1576 1577 1577 1578 1578 1578 1578
1517 1519 1521 1523 1525 1526 1527 1529 1530 1532 1534 1536 1538 1540 1542 1544 1547 1548 1550 1552 1553 1555 1557 1559 1560 1561 1563 1564 1565 1566 1567 1568 1569 1571 1571 1572 1573 1573 1574 1574 1575 1576 1574
1516 1519 1521 1523 1525 1526 1527 1529 1530 1531 1533 1535 1537 1539 1541 1543 1544 1546 1548 1549 1550 1552 1554 1556 1557 1558 1560 1561 1562 1563 1564 1565 1566 1566 1567 1568 1569 1569 1570 1570 1571 1571 1571
1516 1518 1521 1523 1525 1526 1527 1529 1530 1531 1533 1535 1536 1538 1540 1541 1543 1544 1546 1547 1549 1550 1552 1553 1554 1555 1557 1558 1558 1560 1560 1561 1562 1563 1563 1564 1564 1565 1566 1566 1566 1567 1567
1515 1518 1520 1522 1524 1526 1527 1529 1530 1531 1533 1534 1535 1537 1538 1540 1541 1543 1544 1545 1547 1548 1550 1551 1552 1553 1554 1554 1555 1556 1557 1558 1558 1559 1559 1560 1561 1560 1561 1562 1562 1562 1562
1515 1517 1520 1522 1523 1525 1527 1529 1530 1531 1533 1533 1535 1536 1537 1538 1539 1541 1542 1543 1545 1546 1548 1549 1550 1550 1551 1552 1553 1553 1554 1555 1555 1556 1556 1557 1557 1557 1557 1557 1558 1558 1558
1514 1516 1519 1521 1523 1524 1526 1528 1529 1531 1532 1533 1534 1535 1536 1537 1538 1539 1541 1542 1543 1544 1545 1546 1547 1548 1549 1550 1550 1551 1551 1552 1553 1553 1553 1554 1554 1554 1553 1554 1554 1554 1555
1513 1515 1518 1520 1521 1523 1525 1527 1528 1530 1531 1532 1533 1534 1534 1535 1536 1537 1539 1540 1542 1543 1544 1544 1545 1546 1547 1548 1548 1549 1549 1550 1550 1550 1550 1551 1551 1551 1551 1551 1551 1551 1552
1511 1514 1516 1518 1520 1521 1523 1525 1527 1529 1530 1531 1532 1533 1533 1534 1535 1536 1538 1539 1540 1541 1542 1543 1544 1545 1546 1546 1547 1547 1548 1548 1548 1548 1548 1548 1548 1548 1549 1549 1548 1549 1549
1509 1512 1514 1516 1518 1520 1521 1523 1525 1527 1529 1530 1531 1532 1532 1533 1534 1535 1537 1538 1539 1540 1541 1542 1543 1544 1544 1545 1546 1546 1546 1547 1547 1547 1547 1547 1547 1547 1547 1547 1547 1547 1547
1508 1510 1512 1514 1516 1517 1519 1521 1523 1526 1527 1529 1530 1531 1532 1533 1534 1535 1536 1537 1538 1540 1540 1541 1542 1543 1543 1545 1545 1546 1546 1546 1545 1546 1546 1546 1546 1546 1547 1547 1546 1546 1546
1507 1509 1511 1512 1513 1515 1517 1519 1521 1524 1526 1527 1529 1530 1531 1532 1533 1534 1535 1537 1538 1539 1540 1541 1541 1542 1543 1544 1544 1545 1545 1545 1545 1545 1546 1546 1546 1546 1546 1547 1546 1547 1547
1506 1507 1509 1511 1512 1513 1515 1518 1520 1522 1524 1526 1527 1529 1531 1532 1533 1534 1535 1537 1538 1539 1540 1540 1541 1542 1542 1543 1544 1544 1545 1544 1545 1545 1545 1546 1546 1546 1546 1547 1547 1547 1548
1505 1506 1508 1509 1510 1512 1514 1516 1518 1521 1523 1525 1526 1528 1530 1532 1533 1534 1535 1536 1537 1538 1539 1539 1540 1541 1542 1542 1543 1543 1544 1544 1544 1545 1545 1546 1546 1547 1547 1547 1548 1548 1549
1504 1505 1507 1508 1510 1511 1513 1515 1517 1519 1522 1524 1525 1527 1529 1531 1532 1533 1534 1535 1536 1537 1538 1539 1540 1540 1541 1541 1542 1543 1543 1544 1545 1545 1545 1546 1547 1547 1547 1547 1548 1549 1550
1504 1505 1506 1507 1509 1511 1512 1514 1516 1518 1520 1522 1524 1526 1528 1529 1531 1532 1533 1534 1535 1537 1538 1539 1539 1540 1540 1541 1542 1543 1543 1544 1544 1545 1546 1546 1547 1548 1548 1549 1549 1550 1551
1504 1505 1506 1506 1508 1509 1511 1513 1515 1517 1519 1521 1523 1524 1526 1528 1529 1531 1533 1534 1535 1536 1537 1538 1539 1540 1540 1541 1542 1543 1543 1544 1545 1546 1546 1547 1548 1549 1549 1550 1551 1551 1552
1504 1504 1505 1506 1507 1508 1510 1512 1514 1516 1517 1519 1521 1523 1525 1527 1528 1530 1531 1533 1534 1536 1537 1538 1539 1539 1540 1541 1542 1543 1544 1545 1545 1547 1548 1549 1550 1550 1551 1552 1552 1553 1553
1504 1504 1505 1506 1507 1508 1509 1511 1513 1514 1517 1518 1520 1522 1524 1526 1528 1529 1531 1532 1534 1535 1536 1537 1539 1539 1540 1541 1542 1543 1544 1545 1546 1548 1549 1550 1551 1552 1553 1554 1554 1554 1554